Regional Weather Roundup
Issued by NWS

Home | Current Version | Previous Version | Text Only | Print | Product List | Glossary On
Versions: 1 2 3 4 5 6 7 8 9 10 11 12 13 14 15 16 17 18 19 20 21 22 23 24 25 26 27 28 29 30 31 32 33 34 35 36 37 38 39 40 41 42 43 44 45 46 47 48 49 50
000
ASUS43 KLOT 281221
RWRIL

ILLINOIS REGIONAL WEATHER ROUNDUP
NATIONAL WEATHER SERVICE CHICAGO/ROMEOVILLE IL
700 AM CDT THU MAY 28 2015

NOTE: "FAIR" INDICATES FEW OR NO CLOUDS BELOW 12,000 FEET WITH NO
SIGNIFICANT WEATHER AND/OR OBSTRUCTIONS TO VISIBILITY.

* THESE STATIONS ARE NOT UNDER NWS QUALITY CONTROL. THEY ALSO MAY NOT
  REPORT WEATHER SUCH AS PRECIPITATION OR FOG.

ILZ001-002-007-009-015-016-024-281300-
NORTHWEST ILLINOIS

CITY           SKY/WX    TMP DP  RH WIND       PRES   REMARKS
MOLINE         SUNNY     60  56  86 CALM      30.16R
6HR MIN TEMP:  55; 6HR MAX TEMP:  65;

STERLING*      SUNNY     63  57  82 CALM      30.17S
SAVANNA*       SUNNY     63  60  90 CALM      30.16S
$$

ILZ003-004-008-010-011-017-018-281300-
NORTH CENTRAL ILLINOIS

CITY           SKY/WX    TMP DP  RH WIND       PRES   REMARKS
ROCKFORD       MOSUNNY   62  57  83 CALM      30.19S
6HR MIN TEMP:  55; 6HR MAX TEMP:  62;

FREEPORT*      SUNNY     60  56  89 CALM      30.19S
ROCHELLE*      SUNNY     60  57  91 CALM      30.19R
DE KALB*       SUNNY     59  55  87 S5        30.20S
PERU*          SUNNY     63  57  82 CALM      30.18S
$$

ILZ005-006-012>014-019>023-281300-
NORTHEAST ILLINOIS

CITY           SKY/WX    TMP DP  RH WIND       PRES   REMARKS
CHICAGO-OHARE  MOSUNNY   61  55  81 SW6       30.19R
6HR MIN TEMP:  54; 6HR MAX TEMP:  61;

CHICAGO-MIDWAY MOSUNNY   63  57  81 S7        30.19R
6HR MIN TEMP:  60; 6HR MAX TEMP:  64;

AURORA         SUNNY     59  54  83 CALM      30.19F
6HR MIN TEMP:  52; 6HR MAX TEMP:  59;

LANSING*       SUNNY     58  55  89 CALM      30.21S
JOLIET*        SUNNY     61  58  92 CALM      30.19F
WAUKEGAN       SUNNY     60  55  83 SW7       30.18R
6HR MIN TEMP:  54; 6HR MAX TEMP:  60;

DUPAGE AIRPORT SUNNY     60  56  86 SE3       30.19S
6HR MIN TEMP:  52; 6HR MAX TEMP:  60;

KANKAKEE*      SUNNY     59  57  92 CALM      30.21R
WHEELING       SUNNY     60  55  83 CALM      30.21R
6HR MIN TEMP:  52; 6HR MAX TEMP:  60;

MORRIS*        SUNNY     60  56  88 E3        30.16S
ROMEOVILLE*    SUNNY     60  56  88 E3        30.19F
NORTHERLY ISL    N/A     64  54  69 SW7         N/A
$$

LMZ740>746-281300-
SOUTHERN LAKE MICHIGAN

STATION/POSITION SKY/WX   TEMP    WIND        PRES    VSBY  WAVE
                          AIR SEA DIR/SP/G                  HT/PER
                          (F)     (DEG/KT/KT) (MB)    (MI)  (FT/S)
SOUTHERN BUOY              44 38  180/  8/  8 1022.7R         0
HARRISON CRIB              64     200/ 15/ 17   N/A
BURNHAM HARBOR             63     220/  6/  7   N/A
CALUMET HARBOR             60     190/  2/  4   N/A
BURNS HARBOR               61     170/  3/  5 1023.0R
MICHIGAN CITY              62     140/  7/  8   N/A
MICHIGAN CITY 6N           56 53  210/  4/  6   N/A           0
ST. JOSEPH                 58 56  170/  4/  6   N/A           0
$$

ILZ025>027-034>036-040-047-049-050-058-095>099-281300-
WEST-CENTRAL ILLINOIS

CITY           SKY/WX    TMP DP  RH WIND       PRES   REMARKS
QUINCY         SUNNY     65  57  75 SE7       30.16R
GALESBURG*     SUNNY     62  58  86 SE3       30.17R
MACOMB*        SUNNY     61  60  96 SE6       30.20R
JACKSONVILLE*  SUNNY     65  58  78 SE8       30.18R
PITTSFIELD*    MOSUNNY   63  59  88 CALM      30.18S
$$

ILZ028>032-037-038-041>044-048-051>054-059>061-281300-
CENTRAL ILLINOIS

CITY           SKY/WX    TMP DP  RH WIND       PRES   REMARKS
PONTIAC        SUNNY     61  58  87 SE3       30.19F
BLOOMINGTON    SUNNY     62  57  83 SE6       30.20S
DECATUR        SUNNY     62  57  83 E5        30.19S
PEORIA         SUNNY     64  57  78 SW3       30.18R
6HR MIN TEMP:  57; 6HR MAX TEMP:  64;

LACON*         SUNNY     59  56  90 CALM      30.17R
LINCOLN*       SUNNY     63  56  78 CALM      30.17R
SPRINGFIELD    SUNNY     65  57  75 SE8       30.18R
6HR MIN TEMP:  57; 6HR MAX TEMP:  65;

TAYLORVILLE    MOSUNNY   63  55  77 SE7       30.18S
$$

ILZ033-039-045-046-055>057-062-063-281300-
EAST-CENTRAL ILLINOIS

CITY           SKY/WX    TMP DP  RH WIND       PRES   REMARKS
CHAMPAIGN      SUNNY     62  57  83 E7        30.19R
DANVILLE*      MOSUNNY   61  56  85 E5        30.18R
RANTOUL*       SUNNY     64  58  79 E3        30.19S
PARIS*         MOSUNNY   62  58  87 E5        30.21R
$$

ILZ079-100>102-281300-
SOUTHWEST ILLINOIS

CITY           SKY/WX    TMP DP  RH WIND       PRES   REMARKS
ALTON          SUNNY     64  64 100 E6        30.17R
BELLEVILLE     MOSUNNY   64  64  99 VRB2      30.15R
CAHOKIA*       SUNNY     64  61  90 CALM      30.16R
SPARTA*        CLOUDY    68  67  98 CALM      30.17R FOG
$$

ILZ064>066-069>071-074>076-080>082-084>086-088>090-092>094-281300-
SOUTH-CENTRAL ILLINOIS

CITY           SKY/WX    TMP DP  RH WIND       PRES   REMARKS
CARBONDALE     CLOUDY    68  66  93 S3        30.16R FOG
6HR MIN TEMP:  65; 6HR MAX TEMP:  70;

CAIRO*         FOG       65  65 100 CALM      30.17R VSB 1/4
EFFINGHAM*     MOSUNNY   64  56  75 NE3       30.19S
MARION         CLOUDY    68  68 100 MISG      30.18R
MT. VERNON     MOSUNNY   66  61  82 CALM      30.18R
CENTRALIA*     CLOUDY    65  61  86 CALM      30.17R FOG
SALEM*         MOSUNNY   66  60  79 NE6       30.17S
METROPOLIS*    PTSUNNY   65  65 100 CALM      30.16S FOG
$$

ILZ067-068-072-073-078-083-087-091-281300-
SOUTHEAST ILLINOIS

CITY           SKY/WX    TMP DP  RH WIND       PRES   REMARKS
LAWRENCEVILLE  MOSUNNY   66  65  96 CALM      30.17S FOG
FLORA*         CLOUDY    65  63  92 CALM      30.17S FOG
FAIRFIELD*     MOSUNNY   67  66  99 CALM      30.16R FOG
HARRISBURG*    FOG       65  65 100 CALM      30.18R VSB 1
ROBINSON*      MOSUNNY   63  60  90 CALM      30.18S
CARMI*         MOSUNNY   66  63  88 CALM      30.16R FOG
$$

ABBREVIATIONS USED IN REMARKS
   TC - TEMPERATURE IN CELSIUS
  WCI - WIND CHILL INDEX
   HX - HEAT INDEX
  VSB - VISIBILITY
$$




USA.gov is the U.S. government's official web portal to all federal, state and local government web resources and services.